VOE3501 GCLP-LEBB

Flight info

Callsign VOE3501
Flight time 2h 42m
Altitude 34000
Route VASTO/N0446F360 UN858 AKUDA DCT OBOLO DCT PESAS N858 DGO
Aircraft A320/M-SDFGHIJ1RWY/LB1

Departure

Time 2026-04-27 14:01
Airport Gran Canaria Airport (GCLP)

Arrival

Time 2026-04-27 16:44
Airport Bilbao Airport (LEBB)
Time Latitude Longitude Altitude Speed Heading
2026-04-27 13:17 27.93576 -15.38942 85 ft 0 kts 291°
2026-04-27 13:42 27.93570 -15.38926 90 ft 3 kts 291°
2026-04-27 13:42 27.93564 -15.38907 88 ft 3 kts 291°
2026-04-27 13:43 27.93558 -15.38888 87 ft 3 kts 269°
2026-04-27 13:43 27.93562 -15.38867 87 ft 3 kts 232°
2026-04-27 13:43 27.93575 -15.38854 89 ft 2 kts 196°
2026-04-27 13:43 27.93584 -15.38851 88 ft 0 kts 198°
2026-04-27 13:48 27.93583 -15.38851 88 ft 1 kts 198°
2026-04-27 13:48 27.93572 -15.38855 89 ft 4 kts 197°
2026-04-27 13:48 27.93542 -15.38863 86 ft 5 kts 193°
2026-04-27 13:49 27.93499 -15.38874 85 ft 7 kts 194°
2026-04-27 13:49 27.93444 -15.38896 85 ft 9 kts 202°
2026-04-27 13:49 27.93384 -15.38923 84 ft 10 kts 201°
2026-04-27 13:49 27.93315 -15.38954 86 ft 11 kts 201°
2026-04-27 13:50 27.93242 -15.38985 83 ft 12 kts 201°
2026-04-27 13:50 27.93165 -15.39020 84 ft 12 kts 201°
2026-04-27 13:50 27.93085 -15.39055 85 ft 12 kts 201°
2026-04-27 13:50 27.93006 -15.39090 82 ft 12 kts 201°
2026-04-27 13:51 27.92933 -15.39122 89 ft 9 kts 201°
2026-04-27 13:51 27.92880 -15.39122 86 ft 7 kts 143°
2026-04-27 13:51 27.92858 -15.39066 88 ft 8 kts 108°
2026-04-27 13:51 27.92832 -15.39023 86 ft 6 kts 162°
2026-04-27 13:52 27.92790 -15.39034 86 ft 6 kts 202°
2026-04-27 13:52 27.92757 -15.39049 85 ft 4 kts 201°
2026-04-27 13:52 27.92736 -15.39058 88 ft 3 kts 201°
2026-04-27 13:52 27.92724 -15.39064 88 ft 1 kts 202°
2026-04-27 13:53 27.92710 -15.39070 88 ft 3 kts 202°
2026-04-27 13:53 27.92689 -15.39079 88 ft 2 kts 201°
2026-04-27 13:53 27.92681 -15.39083 91 ft 1 kts 202°
2026-04-27 13:54 27.92656 -15.39094 90 ft 10 kts 201°
2026-04-27 13:54 27.92597 -15.39122 92 ft 7 kts 203°
2026-04-27 13:54 27.92563 -15.39136 94 ft 4 kts 199°
2026-04-27 13:54 27.92538 -15.39147 93 ft 3 kts 200°
2026-04-27 13:55 27.92526 -15.39152 94 ft 2 kts 201°
2026-04-27 13:55 27.92510 -15.39159 94 ft 5 kts 202°
2026-04-27 13:55 27.92471 -15.39176 96 ft 5 kts 201°
2026-04-27 13:55 27.92445 -15.39188 95 ft 3 kts 202°
2026-04-27 13:56 27.92430 -15.39195 96 ft 2 kts 201°
2026-04-27 13:56 27.92398 -15.39208 97 ft 8 kts 200°
2026-04-27 13:56 27.92359 -15.39225 99 ft 5 kts 201°
2026-04-27 13:56 27.92290 -15.39255 99 ft 11 kts 201°
2026-04-27 13:57 27.92223 -15.39285 99 ft 10 kts 202°
2026-04-27 13:57 27.92159 -15.39314 97 ft 10 kts 202°
2026-04-27 13:57 27.92093 -15.39343 96 ft 10 kts 201°
2026-04-27 13:57 27.92029 -15.39371 95 ft 9 kts 201°
2026-04-27 13:58 27.91970 -15.39397 95 ft 9 kts 200°
2026-04-27 13:58 27.91915 -15.39379 91 ft 9 kts 131°
2026-04-27 13:58 27.91904 -15.39299 89 ft 11 kts 79°
2026-04-27 13:58 27.91893 -15.39208 89 ft 12 kts 109°
2026-04-27 13:59 27.91868 -15.39132 82 ft 8 kts 111°
2026-04-27 13:59 27.91846 -15.39068 80 ft 9 kts 108°
2026-04-27 13:59 27.91847 -15.39025 77 ft 6 kts 55°
2026-04-27 13:59 27.91880 -15.39007 76 ft 0 kts 19°
2026-04-27 14:00 27.91883 -15.39006 74 ft 0 kts 19°
2026-04-27 14:00 27.91885 -15.39005 74 ft 5 kts 19°
2026-04-27 14:00 27.92121 -15.38903 67 ft 70 kts 21°
2026-04-27 14:00 27.92782 -15.38609 48 ft 129 kts 21°
2026-04-27 14:01 27.93765 -15.38160 160 ft 162 kts 20°
2026-04-27 14:01 27.94799 -15.37689 818 ft 161 kts 18°
2026-04-27 14:01 27.95848 -15.37210 1404 ft 166 kts 20°
2026-04-27 14:01 27.96983 -15.36662 1711 ft 183 kts 21°
2026-04-27 14:02 27.98218 -15.36039 2070 ft 200 kts 22°
2026-04-27 14:02 27.99560 -15.35345 2324 ft 225 kts 23°
2026-04-27 14:02 28.01083 -15.34561 2713 ft 247 kts 21°
2026-04-27 14:02 28.02737 -15.33787 3395 ft 253 kts 19°
2026-04-27 14:03 28.04391 -15.33132 4271 ft 254 kts 16°
2026-04-27 14:03 28.06082 -15.32512 5048 ft 258 kts 16°
2026-04-27 14:03 28.07806 -15.31887 5844 ft 261 kts 16°
2026-04-27 14:03 28.09575 -15.31242 6596 ft 266 kts 17°
2026-04-27 14:04 28.11345 -15.30588 7295 ft 270 kts 17°
2026-04-27 14:04 28.13203 -15.29895 8039 ft 274 kts 17°
2026-04-27 14:04 28.15043 -15.29235 8795 ft 277 kts 15°
2026-04-27 14:04 28.16913 -15.28664 9518 ft 280 kts 13°
2026-04-27 14:05 28.18843 -15.28123 10199 ft 285 kts 13°
2026-04-27 14:05 28.20936 -15.27551 10391 ft 309 kts 12°
2026-04-27 14:05 28.23130 -15.26952 10603 ft 329 kts 13°
2026-04-27 14:05 28.25381 -15.26327 11134 ft 336 kts 13°
2026-04-27 14:06 28.27664 -15.25682 11760 ft 340 kts 12°
2026-04-27 14:06 28.30005 -15.25018 12399 ft 344 kts 12°
2026-04-27 14:06 28.32315 -15.24263 13015 ft 350 kts 20°
2026-04-27 14:06 28.34503 -15.22997 13627 ft 356 kts 30°
2026-04-27 14:07 28.36579 -15.21438 14200 ft 360 kts 31°
2026-04-27 14:07 28.38677 -15.19864 14747 ft 363 kts 31°
2026-04-27 14:07 28.40800 -15.18274 15292 ft 367 kts 31°
2026-04-27 14:07 28.42935 -15.16676 15840 ft 370 kts 31°
2026-04-27 14:08 28.45090 -15.15064 16386 ft 373 kts 31°
2026-04-27 14:08 28.47270 -15.13434 16934 ft 376 kts 31°
2026-04-27 14:08 28.49493 -15.11772 17476 ft 379 kts 31°
2026-04-27 14:08 28.51700 -15.10122 18015 ft 382 kts 31°
2026-04-27 14:09 28.53963 -15.08432 18523 ft 385 kts 31°
2026-04-27 14:09 28.56206 -15.06754 18997 ft 388 kts 31°
2026-04-27 14:09 28.58465 -15.05059 19498 ft 390 kts 31°
2026-04-27 14:09 28.60731 -15.03355 20001 ft 392 kts 32°
2026-04-27 14:10 28.63010 -15.01640 20510 ft 394 kts 32°
2026-04-27 14:10 28.65300 -14.99921 21003 ft 396 kts 31°
2026-04-27 14:10 28.66854 -14.98754 21334 ft 397 kts 31°
2026-04-27 14:10 28.69164 -14.97018 21813 ft 399 kts 31°
2026-04-27 14:11 28.71493 -14.95268 22294 ft 401 kts 32°
2026-04-27 14:11 28.73826 -14.93510 22755 ft 403 kts 31°
2026-04-27 14:11 28.76169 -14.91745 23202 ft 405 kts 32°
2026-04-27 14:11 28.78525 -14.89967 23633 ft 407 kts 32°
2026-04-27 14:12 28.80896 -14.88178 23991 ft 409 kts 32°
2026-04-27 14:12 28.83309 -14.86354 24355 ft 411 kts 32°
2026-04-27 14:12 28.85668 -14.84569 24695 ft 413 kts 31°
2026-04-27 14:12 28.88070 -14.82753 25031 ft 415 kts 32°
2026-04-27 14:13 28.90509 -14.80913 25365 ft 417 kts 32°
2026-04-27 14:13 28.92932 -14.79086 25686 ft 418 kts 32°
2026-04-27 14:13 28.95350 -14.77257 26007 ft 420 kts 31°
2026-04-27 14:13 28.97805 -14.75394 26338 ft 422 kts 32°
2026-04-27 14:14 29.00254 -14.73536 26644 ft 423 kts 32°
2026-04-27 14:14 29.02710 -14.71678 26955 ft 425 kts 32°
2026-04-27 14:14 29.05184 -14.69804 27256 ft 427 kts 32°
2026-04-27 14:14 29.07659 -14.67928 27551 ft 428 kts 32°
2026-04-27 14:15 29.10145 -14.66044 27845 ft 430 kts 32°
2026-04-27 14:15 29.12651 -14.64148 28135 ft 432 kts 32°
2026-04-27 14:15 29.15157 -14.62247 28413 ft 433 kts 32°
2026-04-27 14:15 29.17673 -14.60334 28688 ft 435 kts 32°
2026-04-27 14:16 29.20235 -14.58382 28953 ft 437 kts 32°
2026-04-27 14:16 29.22765 -14.56451 29214 ft 438 kts 32°
2026-04-27 14:16 29.25301 -14.54514 29454 ft 440 kts 32°
2026-04-27 14:16 29.27855 -14.52562 29700 ft 441 kts 32°
2026-04-27 14:17 29.30417 -14.50604 29930 ft 443 kts 32°
2026-04-27 14:17 29.32948 -14.48669 30149 ft 444 kts 32°
2026-04-27 14:17 29.35632 -14.46622 30343 ft 446 kts 32°
2026-04-27 14:17 29.38213 -14.44658 30536 ft 446 kts 32°
2026-04-27 14:18 29.40806 -14.42683 30799 ft 446 kts 32°
2026-04-27 14:18 29.43381 -14.40715 31037 ft 446 kts 32°
2026-04-27 14:18 29.45965 -14.38735 31269 ft 446 kts 32°
2026-04-27 14:18 29.48583 -14.36728 31496 ft 446 kts 32°
2026-04-27 14:19 29.51169 -14.34747 31739 ft 446 kts 32°
2026-04-27 14:19 29.53779 -14.32745 31962 ft 447 kts 32°
2026-04-27 14:19 29.56396 -14.30732 32190 ft 447 kts 32°
2026-04-27 14:19 29.58983 -14.28738 32412 ft 447 kts 32°
2026-04-27 14:20 29.61568 -14.26746 32640 ft 447 kts 32°
2026-04-27 14:20 29.64223 -14.24705 32870 ft 448 kts 32°
2026-04-27 14:20 29.66844 -14.22693 33098 ft 448 kts 32°
2026-04-27 14:20 29.69474 -14.20674 33345 ft 447 kts 32°
2026-04-27 14:21 29.72058 -14.18686 33614 ft 446 kts 32°
2026-04-27 14:21 29.74635 -14.16701 33885 ft 446 kts 32°
2026-04-27 14:21 29.77248 -14.14684 34023 ft 446 kts 32°
2026-04-27 14:22 29.82448 -14.10658 34042 ft 443 kts 32°
2026-04-27 14:22 29.87568 -14.06692 34043 ft 443 kts 32°
2026-04-27 14:23 29.92679 -14.02741 34036 ft 442 kts 32°
2026-04-27 14:23 29.97789 -13.98788 34037 ft 442 kts 32°
2026-04-27 14:24 30.02108 -13.95442 34038 ft 442 kts 32°
2026-04-27 14:24 30.07285 -13.91419 34033 ft 442 kts 32°
2026-04-27 14:25 30.12375 -13.87451 34031 ft 442 kts 32°
2026-04-27 14:25 30.17606 -13.83375 34033 ft 442 kts 32°
2026-04-27 14:26 30.22706 -13.79401 34028 ft 442 kts 32°
2026-04-27 14:26 30.27859 -13.75378 34032 ft 442 kts 32°
2026-04-27 14:27 30.32992 -13.71361 34030 ft 442 kts 32°
2026-04-27 14:27 30.38078 -13.67377 34027 ft 441 kts 32°
2026-04-27 14:28 30.43165 -13.63394 34035 ft 441 kts 32°
2026-04-27 14:28 30.48251 -13.59405 34031 ft 441 kts 32°
2026-04-27 14:29 30.53331 -13.55400 34027 ft 441 kts 32°
2026-04-27 14:29 30.58396 -13.51374 34034 ft 441 kts 32°
2026-04-27 14:30 30.63491 -13.47312 34028 ft 441 kts 33°
2026-04-27 14:30 30.68537 -13.43281 34023 ft 441 kts 33°
2026-04-27 14:31 30.73589 -13.39247 34030 ft 440 kts 33°
2026-04-27 14:31 30.78633 -13.35216 34024 ft 440 kts 32°
2026-04-27 14:32 30.83677 -13.31183 34014 ft 440 kts 33°
2026-04-27 14:32 30.88714 -13.27149 34018 ft 440 kts 33°
2026-04-27 14:33 30.93756 -13.23113 34009 ft 440 kts 33°
2026-04-27 14:33 30.98807 -13.19095 34022 ft 440 kts 33°
2026-04-27 14:34 31.03893 -13.15054 34022 ft 440 kts 33°
2026-04-27 14:34 31.08943 -13.11028 34014 ft 440 kts 33°
2026-04-27 14:35 31.14001 -13.07003 34005 ft 440 kts 33°
2026-04-27 14:35 31.19061 -13.02975 34012 ft 440 kts 33°
2026-04-27 14:36 31.24112 -12.98935 34015 ft 440 kts 33°
2026-04-27 14:36 31.29161 -12.94883 34015 ft 440 kts 33°
2026-04-27 14:37 31.34199 -12.90836 34005 ft 440 kts 33°
2026-04-27 14:37 31.39244 -12.86796 33999 ft 439 kts 33°
2026-04-27 14:38 31.44288 -12.82748 34012 ft 439 kts 33°
2026-04-27 14:38 31.49330 -12.78689 33994 ft 439 kts 34°
2026-04-27 14:39 31.54365 -12.74625 34002 ft 440 kts 33°
2026-04-27 14:39 31.59438 -12.70540 34001 ft 439 kts 34°
2026-04-27 14:40 31.64474 -12.66472 33989 ft 439 kts 34°
2026-04-27 14:40 31.69573 -12.62352 34190 ft 444 kts 34°
2026-04-27 14:40 31.72091 -12.60313 34348 ft 445 kts 34°
2026-04-27 14:41 31.74673 -12.58221 34524 ft 446 kts 34°
2026-04-27 14:41 31.77264 -12.56120 34705 ft 446 kts 34°
2026-04-27 14:41 31.79818 -12.54047 34875 ft 446 kts 34°
2026-04-27 14:41 31.82377 -12.51969 35046 ft 447 kts 34°
2026-04-27 14:42 31.84932 -12.49896 35209 ft 447 kts 33°
2026-04-27 14:42 31.86665 -12.48487 35312 ft 447 kts 33°
2026-04-27 14:42 31.89218 -12.46406 35469 ft 447 kts 33°
2026-04-27 14:42 31.91780 -12.44315 35629 ft 448 kts 33°
2026-04-27 14:43 31.94372 -12.42201 35777 ft 448 kts 34°
2026-04-27 14:43 31.96935 -12.40113 35943 ft 447 kts 33°
2026-04-27 14:43 31.99495 -12.38025 35997 ft 448 kts 33°
2026-04-27 14:44 32.04625 -12.33844 35997 ft 448 kts 33°
2026-04-27 14:44 32.09805 -12.29642 35993 ft 448 kts 33°
2026-04-27 14:45 32.14972 -12.25434 35992 ft 449 kts 33°
2026-04-27 14:45 32.20100 -12.21234 35992 ft 449 kts 33°
2026-04-27 14:46 32.25231 -12.17034 35990 ft 449 kts 33°
2026-04-27 14:46 32.30402 -12.12796 35991 ft 449 kts 33°
2026-04-27 14:47 32.35531 -12.08590 35992 ft 449 kts 34°
2026-04-27 14:47 32.40658 -12.04375 35990 ft 449 kts 34°
2026-04-27 14:48 32.45858 -12.00097 35984 ft 449 kts 34°
2026-04-27 14:48 32.53548 -11.93753 35977 ft 449 kts 34°
2026-04-27 14:49 32.58709 -11.89497 35977 ft 449 kts 34°
2026-04-27 14:49 32.63837 -11.85262 35978 ft 449 kts 34°
2026-04-27 14:50 32.68956 -11.81028 35980 ft 449 kts 34°
2026-04-27 14:50 32.74106 -11.76749 35972 ft 449 kts 34°
2026-04-27 14:51 32.79262 -11.72469 35969 ft 449 kts 34°
2026-04-27 14:51 32.83523 -11.68935 35962 ft 449 kts 34°
2026-04-27 14:52 32.89505 -11.63945 35964 ft 449 kts 34°
2026-04-27 14:52 32.94658 -11.59647 35960 ft 450 kts 34°
2026-04-27 14:53 32.99788 -11.55376 35954 ft 450 kts 34°
2026-04-27 14:53 33.04947 -11.51058 35954 ft 450 kts 34°
2026-04-27 14:54 33.10070 -11.46760 35948 ft 450 kts 34°
2026-04-27 14:54 33.15199 -11.42455 35948 ft 451 kts 34°
2026-04-27 14:55 33.20368 -11.38116 35942 ft 451 kts 34°
2026-04-27 14:55 33.25493 -11.33771 35943 ft 452 kts 35°
2026-04-27 14:56 33.30614 -11.29413 35943 ft 452 kts 35°
2026-04-27 14:56 33.35748 -11.25049 35948 ft 453 kts 35°
2026-04-27 14:57 33.40917 -11.20645 35945 ft 453 kts 35°
2026-04-27 14:57 33.46045 -11.16268 35939 ft 453 kts 35°
2026-04-27 14:58 33.51220 -11.11850 35939 ft 454 kts 35°
2026-04-27 14:58 33.55526 -11.08176 35938 ft 454 kts 35°
2026-04-27 14:59 33.60741 -11.03720 35933 ft 454 kts 35°
2026-04-27 14:59 33.65915 -10.99280 35934 ft 454 kts 36°
2026-04-27 15:00 33.71053 -10.94857 35932 ft 455 kts 36°
2026-04-27 15:00 33.76204 -10.90429 35936 ft 456 kts 36°
2026-04-27 15:01 33.81363 -10.85994 35933 ft 456 kts 36°
2026-04-27 15:01 33.86530 -10.81540 35934 ft 456 kts 36°
2026-04-27 15:02 33.91720 -10.77055 35932 ft 456 kts 36°
2026-04-27 15:02 33.96877 -10.72604 35931 ft 456 kts 36°
2026-04-27 15:03 34.02034 -10.68143 35936 ft 456 kts 36°
2026-04-27 15:03 34.07175 -10.63661 35937 ft 456 kts 36°
2026-04-27 15:04 34.12364 -10.59147 35932 ft 456 kts 36°
2026-04-27 15:04 34.17518 -10.54667 35933 ft 457 kts 36°
2026-04-27 15:05 34.22670 -10.50170 35935 ft 457 kts 36°
2026-04-27 15:05 34.27817 -10.45673 35930 ft 457 kts 36°
2026-04-27 15:06 34.32964 -10.41177 35934 ft 457 kts 36°
2026-04-27 15:06 34.38113 -10.36670 35932 ft 456 kts 36°
2026-04-27 15:07 34.43283 -10.32135 35927 ft 456 kts 36°
2026-04-27 15:07 34.48424 -10.27620 35928 ft 456 kts 36°
2026-04-27 15:08 34.53562 -10.23094 35929 ft 456 kts 36°
2026-04-27 15:08 34.58704 -10.18563 35926 ft 456 kts 37°
2026-04-27 15:09 34.63837 -10.14034 35927 ft 457 kts 36°
2026-04-27 15:09 34.69018 -10.09482 35926 ft 457 kts 36°
2026-04-27 15:10 34.74171 -10.04960 35924 ft 457 kts 36°
2026-04-27 15:10 34.79323 -10.00420 35924 ft 457 kts 36°
2026-04-27 15:11 34.84503 -9.95840 35921 ft 457 kts 37°
2026-04-27 15:11 34.89652 -9.91284 35922 ft 458 kts 37°
2026-04-27 15:12 34.94803 -9.86722 35924 ft 458 kts 37°
2026-04-27 15:12 34.99957 -9.82156 35923 ft 458 kts 37°
2026-04-27 15:13 35.05147 -9.77555 35924 ft 458 kts 37°
2026-04-27 15:13 35.10307 -9.72967 35923 ft 459 kts 37°
2026-04-27 15:14 35.15461 -9.68367 35925 ft 459 kts 37°
2026-04-27 15:14 35.20649 -9.63736 35919 ft 459 kts 37°
2026-04-27 15:15 35.25804 -9.59129 35921 ft 459 kts 37°
2026-04-27 15:15 35.30957 -9.54517 35921 ft 459 kts 37°
2026-04-27 15:16 35.36117 -9.49889 35921 ft 459 kts 37°
2026-04-27 15:16 35.41266 -9.45254 35920 ft 459 kts 37°
2026-04-27 15:17 35.46490 -9.40554 35924 ft 459 kts 37°
2026-04-27 15:17 35.50843 -9.36634 35925 ft 460 kts 37°
2026-04-27 15:18 35.56033 -9.31958 35927 ft 460 kts 37°
2026-04-27 15:18 35.61211 -9.27282 35926 ft 460 kts 37°
2026-04-27 15:19 35.66365 -9.22606 35927 ft 460 kts 37°
2026-04-27 15:19 35.71550 -9.17898 35929 ft 460 kts 37°
2026-04-27 15:20 35.76734 -9.13193 35933 ft 460 kts 37°
2026-04-27 15:20 35.81887 -9.08502 35930 ft 460 kts 37°
2026-04-27 15:21 35.87135 -9.03712 35933 ft 460 kts 37°
2026-04-27 15:21 35.92324 -8.98975 35939 ft 461 kts 37°
2026-04-27 15:22 35.97333 -8.93985 35936 ft 459 kts 47°
2026-04-27 15:22 36.01511 -8.88078 35941 ft 459 kts 50°
2026-04-27 15:23 36.05722 -8.82032 35944 ft 459 kts 50°
2026-04-27 15:23 36.09887 -8.76051 35954 ft 459 kts 50°
2026-04-27 15:24 36.14069 -8.70027 35957 ft 459 kts 50°
2026-04-27 15:24 36.18363 -8.63834 35965 ft 459 kts 50°
2026-04-27 15:25 36.21841 -8.58808 35962 ft 459 kts 50°
2026-04-27 15:25 36.26075 -8.52685 35957 ft 458 kts 50°
2026-04-27 15:26 36.30282 -8.46580 35956 ft 458 kts 50°
2026-04-27 15:26 36.34497 -8.40461 35955 ft 458 kts 50°
2026-04-27 15:27 36.38718 -8.34323 35955 ft 458 kts 50°
2026-04-27 15:27 36.42883 -8.28252 35958 ft 458 kts 50°
2026-04-27 15:28 36.47048 -8.22176 35948 ft 458 kts 51°
2026-04-27 15:28 36.51213 -8.16085 35954 ft 458 kts 51°
2026-04-27 15:29 36.55359 -8.10002 35947 ft 458 kts 51°
2026-04-27 15:29 36.59539 -8.03863 35953 ft 458 kts 51°
2026-04-27 15:30 36.63682 -7.97771 35943 ft 458 kts 51°
2026-04-27 15:30 36.67797 -7.91711 35949 ft 458 kts 51°
2026-04-27 15:31 36.71911 -7.85632 35949 ft 458 kts 51°
2026-04-27 15:31 36.76017 -7.79551 35945 ft 458 kts 51°
2026-04-27 15:32 36.80114 -7.73470 35943 ft 458 kts 51°
2026-04-27 15:32 36.84215 -7.67394 35945 ft 458 kts 51°
2026-04-27 15:33 36.88305 -7.61300 35940 ft 458 kts 51°
2026-04-27 15:33 36.92417 -7.55166 35939 ft 458 kts 51°
2026-04-27 15:34 36.96500 -7.49079 35947 ft 458 kts 51°
2026-04-27 15:34 37.00603 -7.42940 35942 ft 458 kts 51°
2026-04-27 15:35 37.04688 -7.36810 35937 ft 458 kts 51°
2026-04-27 15:35 37.08789 -7.30703 35935 ft 458 kts 51°
2026-04-27 15:36 37.12910 -7.24604 35937 ft 459 kts 50°
2026-04-27 15:36 37.16355 -7.19484 35938 ft 459 kts 51°
2026-04-27 15:37 37.20569 -7.13193 35932 ft 459 kts 51°
2026-04-27 15:37 37.24720 -7.06975 35932 ft 459 kts 51°
2026-04-27 15:38 37.28897 -7.00706 35936 ft 458 kts 51°
2026-04-27 15:38 37.33069 -6.94443 35931 ft 458 kts 51°
2026-04-27 15:39 37.37071 -6.88418 35934 ft 458 kts 51°
2026-04-27 15:39 37.41320 -6.82014 35933 ft 458 kts 51°
2026-04-27 15:40 37.45400 -6.75859 35938 ft 458 kts 51°
2026-04-27 15:40 37.49474 -6.69699 35938 ft 458 kts 51°
2026-04-27 15:41 37.53545 -6.63526 35936 ft 457 kts 51°
2026-04-27 15:41 37.57603 -6.57351 35939 ft 457 kts 51°
2026-04-27 15:42 37.61655 -6.51188 35942 ft 457 kts 51°
2026-04-27 15:42 37.65717 -6.45001 35942 ft 457 kts 51°
2026-04-27 15:43 37.69788 -6.38785 35941 ft 456 kts 51°
2026-04-27 15:43 37.73834 -6.32599 35940 ft 456 kts 51°
2026-04-27 15:44 37.77866 -6.26407 35940 ft 457 kts 51°
2026-04-27 15:44 37.81893 -6.20213 35939 ft 457 kts 51°
2026-04-27 15:45 37.85940 -6.13988 35937 ft 457 kts 51°
2026-04-27 15:45 37.89998 -6.07739 35943 ft 458 kts 51°
2026-04-27 15:46 37.94108 -6.01571 35935 ft 458 kts 45°
2026-04-27 15:46 37.98278 -5.97369 35931 ft 458 kts 31°
2026-04-27 15:47 38.03675 -5.93072 35933 ft 459 kts 32°
2026-04-27 15:47 38.09076 -5.88746 35938 ft 459 kts 32°
2026-04-27 15:48 38.14514 -5.84380 35940 ft 460 kts 32°
2026-04-27 15:49 38.22612 -5.77824 35935 ft 460 kts 32°
2026-04-27 15:49 38.28005 -5.73467 35937 ft 460 kts 32°
2026-04-27 15:50 38.33410 -5.69098 35939 ft 460 kts 32°
2026-04-27 15:50 38.38816 -5.64713 35941 ft 460 kts 32°
2026-04-27 15:51 38.44217 -5.60325 35946 ft 461 kts 32°
2026-04-27 15:51 38.49659 -5.55893 35950 ft 461 kts 32°
2026-04-27 15:52 38.55055 -5.51503 35951 ft 460 kts 32°
2026-04-27 15:52 38.60460 -5.47099 35952 ft 460 kts 32°
2026-04-27 15:53 38.65864 -5.42713 35954 ft 460 kts 32°
2026-04-27 15:53 38.71284 -5.38339 35953 ft 460 kts 32°
2026-04-27 15:54 38.76694 -5.33971 35954 ft 460 kts 32°
2026-04-27 15:54 38.82100 -5.29586 35953 ft 460 kts 32°
2026-04-27 15:55 38.87497 -5.25199 35953 ft 460 kts 32°
2026-04-27 15:55 38.92894 -5.20809 35952 ft 459 kts 32°
2026-04-27 15:56 38.98289 -5.16400 35949 ft 460 kts 32°
2026-04-27 15:56 39.03678 -5.11965 35951 ft 460 kts 32°
2026-04-27 15:57 39.09039 -5.07544 35951 ft 460 kts 32°
2026-04-27 15:57 39.14479 -5.03048 35948 ft 460 kts 32°
2026-04-27 15:58 39.19854 -4.98590 35952 ft 460 kts 32°
2026-04-27 15:58 39.25234 -4.94117 35960 ft 460 kts 32°
2026-04-27 15:59 39.30603 -4.89633 35960 ft 459 kts 32°
2026-04-27 15:59 39.35973 -4.85153 35960 ft 459 kts 32°
2026-04-27 16:00 39.41348 -4.80679 35967 ft 459 kts 32°
2026-04-27 16:00 39.46711 -4.76188 35958 ft 460 kts 32°
2026-04-27 16:01 39.52080 -4.71681 35964 ft 460 kts 32°
2026-04-27 16:01 39.57447 -4.67178 35962 ft 459 kts 32°
2026-04-27 16:02 39.62814 -4.62663 35962 ft 460 kts 32°
2026-04-27 16:02 39.68149 -4.58159 35982 ft 455 kts 32°
2026-04-27 16:03 39.73488 -4.53639 35979 ft 459 kts 32°
2026-04-27 16:03 39.78843 -4.49110 35970 ft 459 kts 32°
2026-04-27 16:04 39.84200 -4.44578 35980 ft 459 kts 32°
2026-04-27 16:04 39.89553 -4.40037 35989 ft 459 kts 32°
2026-04-27 16:05 39.94900 -4.35485 35988 ft 459 kts 32°
2026-04-27 16:05 40.00534 -4.31559 35990 ft 457 kts 23°
2026-04-27 16:06 40.06301 -4.28058 35995 ft 456 kts 23°
2026-04-27 16:06 40.12017 -4.24560 35999 ft 456 kts 23°
2026-04-27 16:07 40.17795 -4.21017 36004 ft 456 kts 23°
2026-04-27 16:07 40.23540 -4.17492 36011 ft 456 kts 23°
2026-04-27 16:08 40.29272 -4.13978 36015 ft 455 kts 23°
2026-04-27 16:08 40.35016 -4.10458 36029 ft 455 kts 23°
2026-04-27 16:09 40.40743 -4.06939 36031 ft 455 kts 23°
2026-04-27 16:09 40.49342 -4.01620 36041 ft 455 kts 23°
2026-04-27 16:10 40.60784 -3.94525 36048 ft 454 kts 23°
2026-04-27 16:11 40.69365 -3.89198 36055 ft 454 kts 23°
2026-04-27 16:12 40.77923 -3.83868 36057 ft 453 kts 23°
2026-04-27 16:13 40.86468 -3.78520 36055 ft 452 kts 23°
2026-04-27 16:13 40.95024 -3.73158 36051 ft 452 kts 23°
2026-04-27 16:14 41.06354 -3.66022 36057 ft 451 kts 23°
2026-04-27 16:15 41.17697 -3.58949 36058 ft 449 kts 21°
2026-04-27 16:16 41.29275 -3.52748 36059 ft 448 kts 19°
2026-04-27 16:17 41.40778 -3.46494 36064 ft 448 kts 20°
2026-04-27 16:18 41.51387 -3.40642 36063 ft 447 kts 20°
2026-04-27 16:19 41.57289 -3.37396 36065 ft 447 kts 20°
2026-04-27 16:20 41.68753 -3.31060 36067 ft 446 kts 20°
2026-04-27 16:21 41.77422 -3.26249 36067 ft 446 kts 20°
2026-04-27 16:22 41.89031 -3.19784 36079 ft 446 kts 20°
2026-04-27 16:22 41.97760 -3.14907 36074 ft 448 kts 21°
2026-04-27 16:23 42.06513 -3.10006 34691 ft 459 kts 21°
2026-04-27 16:23 42.09510 -3.08324 33771 ft 462 kts 21°
2026-04-27 16:24 42.11547 -3.07179 33258 ft 460 kts 21°
2026-04-27 16:24 42.17534 -3.03799 31973 ft 453 kts 21°
2026-04-27 16:25 42.23269 -3.00558 30218 ft 441 kts 21°
2026-04-27 16:25 42.28849 -2.97404 28313 ft 430 kts 21°
2026-04-27 16:26 42.34304 -2.94318 26555 ft 419 kts 21°
2026-04-27 16:26 42.39536 -2.91359 25538 ft 394 kts 21°
2026-04-27 16:27 42.44473 -2.88695 24654 ft 369 kts 14°
2026-04-27 16:27 42.51847 -2.87734 23326 ft 348 kts
2026-04-27 16:28 42.56655 -2.87470 22474 ft 344 kts
2026-04-27 16:28 42.61413 -2.87195 21638 ft 340 kts
2026-04-27 16:29 42.68472 -2.86806 20428 ft 336 kts
2026-04-27 16:30 42.73106 -2.87190 19612 ft 333 kts 343°
2026-04-27 16:30 42.77286 -2.89728 18830 ft 329 kts 328°
2026-04-27 16:31 42.83384 -2.94429 17592 ft 328 kts 329°
2026-04-27 16:31 42.87489 -2.97594 16790 ft 325 kts 328°
2026-04-27 16:32 42.91456 -3.00676 16021 ft 323 kts 328°
2026-04-27 16:32 42.93409 -3.02194 15651 ft 323 kts 328°
2026-04-27 16:33 42.96679 -3.04733 15010 ft 323 kts 328°
2026-04-27 16:33 42.98618 -3.06241 14639 ft 323 kts 328°
2026-04-27 16:33 43.00670 -3.07841 14240 ft 322 kts 328°
2026-04-27 16:33 43.02641 -3.09378 13856 ft 322 kts 328°
2026-04-27 16:34 43.04610 -3.10911 13451 ft 320 kts 328°
2026-04-27 16:34 43.06537 -3.12412 13068 ft 318 kts 328°
2026-04-27 16:34 43.08622 -3.14042 12651 ft 316 kts 328°
2026-04-27 16:34 43.10487 -3.15502 12282 ft 314 kts 328°
2026-04-27 16:35 43.12450 -3.17037 11881 ft 312 kts 328°
2026-04-27 16:35 43.14370 -3.18536 11648 ft 304 kts 328°
2026-04-27 16:35 43.18056 -3.21423 11009 ft 298 kts 328°
2026-04-27 16:36 43.19844 -3.22829 10645 ft 295 kts 328°
2026-04-27 16:36 43.21624 -3.24229 10280 ft 294 kts 328°
2026-04-27 16:36 43.22888 -3.25222 10056 ft 293 kts 328°
2026-04-27 16:36 43.24678 -3.26608 9672 ft 291 kts 332°
2026-04-27 16:37 43.26618 -3.27514 9204 ft 290 kts 348°
2026-04-27 16:37 43.28700 -3.27831 8541 ft 289 kts 355°
2026-04-27 16:37 43.30676 -3.27905 8077 ft 280 kts 359°
2026-04-27 16:37 43.32595 -3.27781 7666 ft 271 kts
2026-04-27 16:38 43.34459 -3.27478 7277 ft 270 kts
2026-04-27 16:38 43.36305 -3.27000 6879 ft 270 kts 12°
2026-04-27 16:38 43.38144 -3.26320 6432 ft 271 kts 17°
2026-04-27 16:38 43.39934 -3.25442 5929 ft 275 kts 24°
2026-04-27 16:39 43.41401 -3.23842 5544 ft 272 kts 57°
2026-04-27 16:39 43.41942 -3.21405 5189 ft 268 kts 92°
2026-04-27 16:39 43.41453 -3.18973 5067 ft 254 kts 115°
2026-04-27 16:39 43.40490 -3.17012 4999 ft 239 kts 141°
2026-04-27 16:40 43.39125 -3.15702 4927 ft 227 kts 138°
2026-04-27 16:40 43.38321 -3.13956 4850 ft 213 kts 108°
2026-04-27 16:40 43.37764 -3.12076 4755 ft 211 kts 115°
2026-04-27 16:40 43.37067 -3.10153 4406 ft 214 kts 116°
2026-04-27 16:41 43.36408 -3.08276 3796 ft 223 kts 115°
2026-04-27 16:41 43.35693 -3.06399 3232 ft 224 kts 118°
2026-04-27 16:41 43.34940 -3.04496 2683 ft 223 kts 116°
2026-04-27 16:41 43.34263 -3.02588 2190 ft 220 kts 113°
2026-04-27 16:42 43.33636 -3.00608 1788 ft 218 kts 111°
2026-04-27 16:42 43.33012 -2.98754 1414 ft 209 kts 118°
2026-04-27 16:42 43.32262 -2.97105 1133 ft 197 kts 119°
2026-04-27 16:42 43.31702 -2.95446 818 ft 183 kts 109°
2026-04-27 16:43 43.31203 -2.93959 499 ft 173 kts 118°
2026-04-27 16:43 43.30799 -2.92969 251 ft 168 kts 115°
2026-04-27 16:43 43.30306 -2.91585 134 ft 144 kts 116°
2026-04-27 16:43 43.29958 -2.90632 127 ft 74 kts 117°
2026-04-27 16:44 43.29787 -2.90170 133 ft 36 kts 120°
2026-04-27 16:44 43.29740 -2.90055 132 ft 4 kts 117°
2026-04-27 16:44 43.29730 -2.90026 132 ft 2 kts 116°
2026-04-27 16:44 43.29708 -2.89965 132 ft 7 kts 115°
2026-04-27 16:45 43.29688 -2.89903 132 ft 11 kts 112°
2026-04-27 16:45 43.29656 -2.89769 132 ft 12 kts 105°
2026-04-27 16:45 43.29655 -2.89688 132 ft 8 kts 71°
2026-04-27 16:45 43.29689 -2.89620 132 ft 9 kts 50°
2026-04-27 16:46 43.29738 -2.89588 132 ft 7 kts 353°
2026-04-27 16:46 43.29771 -2.89629 132 ft 6 kts 298°
2026-04-27 16:46 43.29788 -2.89674 132 ft 5 kts 298°
2026-04-27 16:46 43.29803 -2.89711 132 ft 4 kts 298°
2026-04-27 16:47 43.29814 -2.89740 132 ft 3 kts 297°
2026-04-27 16:47 43.29823 -2.89766 132 ft 6 kts 296°
2026-04-27 16:47 43.29849 -2.89838 132 ft 8 kts 296°
2026-04-27 16:47 43.29872 -2.89902 132 ft 7 kts 296°
2026-04-27 16:48 43.29892 -2.89957 132 ft 6 kts 296°
2026-04-27 16:48 43.29909 -2.90002 132 ft 5 kts 296°
2026-04-27 16:48 43.29927 -2.90053 132 ft 10 kts 297°
2026-04-27 16:49 43.30006 -2.90268 132 ft 14 kts 296°
2026-04-27 16:49 43.30046 -2.90376 132 ft 12 kts 298°
2026-04-27 16:49 43.30084 -2.90480 132 ft 13 kts 295°
2026-04-27 16:49 43.30121 -2.90568 132 ft 10 kts 320°
2026-04-27 16:50 43.30186 -2.90551 132 ft 8 kts 29°
2026-04-27 16:50 43.30227 -2.90525 132 ft 7 kts 13°
2026-04-27 16:50 43.30277 -2.90549 132 ft 8 kts 328°
2026-04-27 16:50 43.30329 -2.90596 132 ft 9 kts 323°
2026-04-27 16:51 43.30359 -2.90658 132 ft 5 kts 298°
2026-04-27 16:51 43.30380 -2.90665 132 ft 3 kts
2026-04-27 16:51 43.30403 -2.90652 132 ft 4 kts 27°
2026-04-27 16:51 43.30422 -2.90638 132 ft 2 kts 27°
2026-04-27 16:52 43.30427 -2.90635 132 ft 0 kts 27°